Time,TemperatureF,DewpointF,PressureIn,WindDirection,WindDirectionDegrees,WindSpeedMPH,WindSpeedGustMPH,Humidity,HourlyPrecipIn,Conditions,Clouds,dailyrainin,SolarRadiationWatts/m^2,SoftwareType,DateUTC
2013-06-11 00:02:00,86.0,31.0,-100.00,NW,324,3.0,6.0,14,0.00,,,0.00,1.000000,,2013-06-11 07:02:00,
2013-06-11 00:32:00,79.0,29.0,-100.00,East,99,2.0,8.0,16,0.00,,,0.00,1.000000,,2013-06-11 07:32:00,
2013-06-11 00:42:00,79.0,29.0,-100.00,East,99,2.0,8.0,16,0.00,,,0.00,1.000000,,2013-06-11 07:42:00,
2013-06-11 00:52:00,79.0,29.0,-100.00,East,99,2.0,8.0,16,0.00,,,0.00,1.000000,,2013-06-11 07:52:00,
2013-06-11 01:02:00,79.0,29.0,-100.00,East,99,2.0,8.0,16,0.00,,,0.00,1.000000,,2013-06-11 08:02:00,
2013-06-11 01:32:00,76.0,32.0,-100.00,SSE,165,2.0,6.0,20,0.00,,,0.00,1.000000,,2013-06-11 08:32:00,
2013-06-11 01:42:00,76.0,32.0,-100.00,SSE,165,2.0,6.0,20,0.00,,,0.00,1.000000,,2013-06-11 08:42:00,
2013-06-11 01:52:00,76.0,32.0,-100.00,SSE,165,2.0,6.0,20,0.00,,,0.00,1.000000,,2013-06-11 08:52:00,
2013-06-11 02:02:00,76.0,32.0,-100.00,SSE,165,2.0,6.0,20,0.00,,,0.00,1.000000,,2013-06-11 09:02:00,
2013-06-11 02:33:00,73.0,31.0,-100.00,North,11,2.0,6.0,21,0.00,,,0.00,1.000000,,2013-06-11 09:33:00,
2013-06-11 02:43:00,73.0,31.0,-100.00,North,11,2.0,6.0,21,0.00,,,0.00,1.000000,,2013-06-11 09:43:00,
2013-06-11 02:53:00,73.0,31.0,-100.00,North,11,2.0,6.0,21,0.00,,,0.00,1.000000,,2013-06-11 09:53:00,
2013-06-11 03:03:00,73.0,31.0,-100.00,North,11,2.0,6.0,21,0.00,,,0.00,1.000000,,2013-06-11 10:03:00,
2013-06-11 03:33:00,72.0,29.0,-100.00,East,82,3.0,7.0,20,0.00,,,0.00,1.000000,,2013-06-11 10:33:00,
2013-06-11 03:43:00,72.0,29.0,-100.00,East,82,3.0,7.0,20,0.00,,,0.00,1.000000,,2013-06-11 10:43:00,
2013-06-11 03:52:00,72.0,29.0,-100.00,East,82,3.0,7.0,20,0.00,,,0.00,1.000000,,2013-06-11 10:52:00,
2013-06-11 04:02:00,72.0,29.0,-100.00,East,82,3.0,7.0,20,0.00,,,0.00,1.000000,,2013-06-11 11:02:00,
2013-06-11 04:32:00,67.0,27.0,-100.00,ESE,113,1.0,4.0,22,0.00,,,-99.99,1.000000,,2013-06-11 11:32:00,
2013-06-11 04:42:00,67.0,27.0,-100.00,ESE,113,1.0,4.0,22,0.00,,,-99.99,1.000000,,2013-06-11 11:42:00,
2013-06-11 04:52:00,67.0,27.0,-100.00,ESE,113,1.0,4.0,22,0.00,,,-99.99,1.000000,,2013-06-11 11:52:00,
2013-06-11 05:02:00,67.0,27.0,-100.00,ESE,113,1.0,4.0,22,0.00,,,-99.99,1.000000,,2013-06-11 12:02:00,
2013-06-11 05:32:00,68.0,29.0,-100.00,North,3,4.0,5.0,23,0.00,,,-99.99,1.000000,,2013-06-11 12:32:00,
2013-06-11 05:42:00,68.0,29.0,-100.00,North,3,4.0,5.0,23,0.00,,,-99.99,1.000000,,2013-06-11 12:42:00,
2013-06-11 05:52:00,68.0,29.0,-100.00,North,3,4.0,5.0,23,0.00,,,-99.99,1.000000,,2013-06-11 12:52:00,
2013-06-11 06:02:00,68.0,29.0,-100.00,North,3,4.0,5.0,23,0.00,,,-99.99,1.000000,,2013-06-11 13:02:00,
2013-06-11 06:32:00,76.0,31.0,-100.00,NNE,24,4.0,6.0,19,0.00,,,-99.99,24.000000,,2013-06-11 13:32:00,
2013-06-11 06:42:00,76.0,31.0,-100.00,NNE,24,4.0,6.0,19,0.00,,,-99.99,24.000000,,2013-06-11 13:42:00,
2013-06-11 06:52:00,76.0,31.0,-100.00,NNE,24,4.0,6.0,19,0.00,,,-99.99,24.000000,,2013-06-11 13:52:00,
2013-06-11 07:02:00,76.0,31.0,-100.00,NNE,24,4.0,6.0,19,0.00,,,-99.99,24.000000,,2013-06-11 14:02:00,
2013-06-11 07:32:00,86.0,36.0,-100.00,South,183,1.0,5.0,17,0.00,,,0.00,195.000000,,2013-06-11 14:32:00,
2013-06-11 07:42:00,86.0,36.0,-100.00,South,183,1.0,5.0,17,0.00,,,0.00,195.000000,,2013-06-11 14:42:00,
2013-06-11 07:53:00,86.0,36.0,-100.00,South,183,1.0,5.0,17,0.00,,,0.00,195.000000,,2013-06-11 14:53:00,
2013-06-11 08:02:00,86.0,36.0,-100.00,South,183,1.0,5.0,17,0.00,,,0.00,195.000000,,2013-06-11 15:02:00,
2013-06-11 08:33:00,93.0,37.0,-100.00,South,181,3.0,5.0,14,0.00,,,0.00,404.000000,,2013-06-11 15:33:00,
2013-06-11 08:43:00,93.0,37.0,-100.00,South,181,3.0,5.0,14,0.00,,,0.00,404.000000,,2013-06-11 15:43:00,
2013-06-11 08:53:00,93.0,37.0,-100.00,South,181,3.0,5.0,14,0.00,,,0.00,404.000000,,2013-06-11 15:53:00,
2013-06-11 09:02:00,93.0,37.0,-100.00,South,181,3.0,5.0,14,0.00,,,0.00,404.000000,,2013-06-11 16:02:00,
2013-06-11 09:33:00,95.0,30.0,-100.00,SSW,209,5.0,7.0,10,0.00,,,0.00,609.000000,,2013-06-11 16:33:00,
2013-06-11 09:42:00,95.0,30.0,-100.00,SSW,209,5.0,7.0,10,0.00,,,0.00,609.000000,,2013-06-11 16:42:00,
2013-06-11 09:52:00,95.0,30.0,-100.00,SSW,209,5.0,7.0,10,0.00,,,0.00,609.000000,,2013-06-11 16:52:00,
2013-06-11 10:02:00,95.0,30.0,-100.00,SSW,209,5.0,7.0,10,0.00,,,0.00,609.000000,,2013-06-11 17:02:00,
2013-06-11 10:32:00,99.0,30.0,-100.00,SW,224,5.0,11.0,9,0.00,,,0.00,788.000000,,2013-06-11 17:32:00,
2013-06-11 10:43:00,99.0,30.0,-100.00,SW,224,5.0,11.0,9,0.00,,,0.00,788.000000,,2013-06-11 17:43:00,
2013-06-11 10:52:00,99.0,30.0,-100.00,SW,224,5.0,11.0,9,0.00,,,0.00,788.000000,,2013-06-11 17:52:00,
2013-06-11 11:02:00,99.0,30.0,-100.00,SW,224,5.0,11.0,9,0.00,,,0.00,788.000000,,2013-06-11 18:02:00,
2013-06-11 11:33:00,102.0,26.0,-100.00,WSW,256,5.0,9.0,7,0.00,,,0.00,921.000000,,2013-06-11 18:33:00,
2013-06-11 11:43:00,102.0,26.0,-100.00,WSW,256,5.0,9.0,7,0.00,,,0.00,921.000000,,2013-06-11 18:43:00,
2013-06-11 11:52:00,102.0,26.0,-100.00,WSW,256,5.0,9.0,7,0.00,,,0.00,921.000000,,2013-06-11 18:52:00,
2013-06-11 12:02:00,102.0,26.0,-100.00,WSW,256,5.0,9.0,7,0.00,,,0.00,921.000000,,2013-06-11 19:02:00,
2013-06-11 12:33:00,105.0,25.0,-100.00,WSW,238,7.0,14.0,6,0.00,,,-99.99,995.000000,,2013-06-11 19:33:00,
2013-06-11 12:42:00,105.0,25.0,-100.00,WSW,238,7.0,14.0,6,0.00,,,-99.99,995.000000,,2013-06-11 19:42:00,
2013-06-11 12:52:00,105.0,25.0,-100.00,WSW,238,7.0,14.0,6,0.00,,,-99.99,995.000000,,2013-06-11 19:52:00,
2013-06-11 13:02:00,105.0,25.0,-100.00,WSW,238,7.0,14.0,6,0.00,,,-99.99,995.000000,,2013-06-11 20:02:00,
2013-06-11 13:32:00,106.0,21.0,-100.00,WSW,253,9.0,15.0,5,0.00,,,0.00,1017.000000,,2013-06-11 20:32:00,
2013-06-11 13:42:00,106.0,21.0,-100.00,WSW,253,9.0,15.0,5,0.00,,,0.00,1017.000000,,2013-06-11 20:42:00,
2013-06-11 13:52:00,106.0,21.0,-100.00,WSW,253,9.0,15.0,5,0.00,,,0.00,1017.000000,,2013-06-11 20:52:00,
2013-06-11 14:02:00,106.0,21.0,-100.00,WSW,253,9.0,15.0,5,0.00,,,0.00,1017.000000,,2013-06-11 21:02:00,
2013-06-11 14:33:00,107.0,17.0,-100.00,WSW,249,11.0,18.0,4,0.00,,,0.00,980.000000,,2013-06-11 21:33:00,
2013-06-11 14:42:00,107.0,17.0,-100.00,WSW,249,11.0,18.0,4,0.00,,,0.00,980.000000,,2013-06-11 21:42:00,
2013-06-11 14:53:00,107.0,17.0,-100.00,WSW,249,11.0,18.0,4,0.00,,,0.00,980.000000,,2013-06-11 21:53:00,
2013-06-11 15:03:00,107.0,17.0,-100.00,WSW,249,11.0,18.0,4,0.00,,,0.00,980.000000,,2013-06-11 22:03:00,
2013-06-11 15:33:00,107.0,17.0,-100.00,West,270,12.0,20.0,4,0.00,,,0.00,886.000000,,2013-06-11 22:33:00,
2013-06-11 15:42:00,107.0,17.0,-100.00,West,270,12.0,20.0,4,0.00,,,0.00,886.000000,,2013-06-11 22:42:00,
2013-06-11 15:52:00,107.0,17.0,-100.00,West,270,12.0,20.0,4,0.00,,,0.00,886.000000,,2013-06-11 22:52:00,
2013-06-11 16:02:00,107.0,17.0,-100.00,West,270,12.0,20.0,4,0.00,,,0.00,886.000000,,2013-06-11 23:02:00,
2013-06-11 16:32:00,107.0,17.0,-100.00,WSW,258,11.0,24.0,4,0.00,,,0.00,733.000000,,2013-06-11 23:32:00,
2013-06-11 16:42:00,107.0,17.0,-100.00,WSW,258,11.0,24.0,4,0.00,,,0.00,733.000000,,2013-06-11 23:42:00,
2013-06-11 16:52:00,107.0,17.0,-100.00,WSW,258,11.0,24.0,4,0.00,,,0.00,733.000000,,2013-06-11 23:52:00,
2013-06-11 17:02:00,107.0,17.0,-100.00,WSW,258,11.0,24.0,4,0.00,,,0.00,733.000000,,2013-06-12 00:02:00,
2013-06-11 17:32:00,105.0,20.0,-100.00,West,275,12.0,21.0,5,0.00,,,0.00,540.000000,,2013-06-12 00:32:00,
2013-06-11 17:42:00,105.0,20.0,-100.00,West,275,12.0,21.0,5,0.00,,,0.00,540.000000,,2013-06-12 00:42:00,
2013-06-11 17:52:00,105.0,20.0,-100.00,West,275,12.0,21.0,5,0.00,,,0.00,540.000000,,2013-06-12 00:52:00,
2013-06-11 18:02:00,105.0,20.0,-100.00,West,275,12.0,21.0,5,0.00,,,0.00,540.000000,,2013-06-12 01:02:00,
2013-06-11 18:32:00,103.0,19.0,-100.00,WNW,288,9.0,20.0,5,0.00,,,0.00,327.000000,,2013-06-12 01:32:00,
2013-06-11 18:42:00,103.0,19.0,-100.00,WNW,288,9.0,20.0,5,0.00,,,0.00,327.000000,,2013-06-12 01:42:00,
2013-06-11 18:52:00,103.0,19.0,-100.00,WNW,288,9.0,20.0,5,0.00,,,0.00,327.000000,,2013-06-12 01:52:00,
2013-06-11 19:02:00,103.0,19.0,-100.00,WNW,288,9.0,20.0,5,0.00,,,0.00,327.000000,,2013-06-12 02:02:00,
2013-06-11 19:32:00,98.0,20.0,-100.00,West,274,10.0,19.0,6,0.00,,,0.00,95.000000,,2013-06-12 02:32:00,
2013-06-11 19:42:00,98.0,20.0,-100.00,West,274,10.0,19.0,6,0.00,,,0.00,95.000000,,2013-06-12 02:42:00,
2013-06-11 19:52:00,98.0,20.0,-100.00,West,274,10.0,19.0,6,0.00,,,0.00,95.000000,,2013-06-12 02:52:00,
2013-06-11 20:01:00,98.0,20.0,-100.00,West,274,10.0,19.0,6,0.00,,,0.00,95.000000,,2013-06-12 03:01:00,
2013-06-11 20:33:00,95.0,24.0,-100.00,WNW,292,4.0,17.0,8,0.00,,,0.00,3.000000,,2013-06-12 03:33:00,
2013-06-11 20:43:00,95.0,24.0,-100.00,WNW,292,4.0,17.0,8,0.00,,,0.00,3.000000,,2013-06-12 03:43:00,
2013-06-11 20:53:00,95.0,24.0,-100.00,WNW,292,4.0,17.0,8,0.00,,,0.00,3.000000,,2013-06-12 03:53:00,
2013-06-11 21:02:00,95.0,24.0,-100.00,WNW,292,4.0,17.0,8,0.00,,,0.00,3.000000,,2013-06-12 04:02:00,
2013-06-11 21:34:00,95.0,27.0,-100.00,NW,305,6.0,14.0,9,0.00,,,0.00,1.000000,,2013-06-12 04:34:00,
2013-06-11 21:42:00,95.0,27.0,-100.00,NW,305,6.0,14.0,9,0.00,,,0.00,1.000000,,2013-06-12 04:42:00,
2013-06-11 21:52:00,95.0,27.0,-100.00,NW,305,6.0,14.0,9,0.00,,,0.00,1.000000,,2013-06-12 04:52:00,
2013-06-11 22:02:00,95.0,27.0,-100.00,NW,305,6.0,14.0,9,0.00,,,0.00,1.000000,,2013-06-12 05:02:00,
2013-06-11 22:32:00,93.0,26.0,-100.00,NW,313,4.0,9.0,9,0.00,,,0.00,1.000000,,2013-06-12 05:32:00,
2013-06-11 22:42:00,93.0,26.0,-100.00,NW,313,4.0,9.0,9,0.00,,,0.00,1.000000,,2013-06-12 05:42:00,
2013-06-11 22:52:00,93.0,26.0,-100.00,NW,313,4.0,9.0,9,0.00,,,0.00,1.000000,,2013-06-12 05:52:00,
2013-06-11 23:02:00,93.0,26.0,-100.00,NW,313,4.0,9.0,9,0.00,,,0.00,1.000000,,2013-06-12 06:02:00,
2013-06-11 23:32:00,85.0,25.0,-100.00,SSW,200,3.0,7.0,11,0.00,,,0.00,1.000000,,2013-06-12 06:32:00,
2013-06-11 23:42:00,85.0,25.0,-100.00,SSW,200,3.0,7.0,11,0.00,,,0.00,1.000000,,2013-06-12 06:42:00,
2013-06-11 23:52:00,85.0,25.0,-100.00,SSW,200,3.0,7.0,11,0.00,,,0.00,1.000000,,2013-06-12 06:52:00,